Regional Weather Roundup
Issued by NWS

Home | Current Version | Previous Version | Graphics & Text | Print | Product List | Glossary On
Versions: 1 2 3 4 5 6 7 8 9 10 11 12 13 14 15 16 17 18 19 20 21 22 23 24 25 26 27 28 29 30 31 32 33 34 35 36 37 38 39 40 41 42 43 44 45 46 47 48 49 50
066
ASUS45 KTFX 251410
RWRMT
MONTANA REGIONAL WEATHER ROUNDUP
NATIONAL WEATHER SERVICE GREAT FALLS MT
800 AM MDT TUE JUL 25 2017

NOTE: "FAIR" INDICATES FEW OR NO CLOUDS BELOW 12000 FEET WITH NO
SIGNIFICANT WEATHER AND/OR OBSTRUCTIONS TO VISIBILITY.

MTZ001>007-043-251500-
WEST OF THE DIVIDE

CITY           SKY/WX    TMP DP  RH WIND       PRES   REMARKS
KALISPELL      SUNNY     66  43  43 N9        30.05R
MISSOULA       SUNNY     59  37  44 CALM      30.07R
BUTTE          MOSUNNY   53  36  52 S5        30.19R
MULLAN PASS    SUNNY     61  28  28 CALM      30.17R
ANACONDA         N/A     57  36  44 CALM      30.16R
DEER LODGE       N/A     57  36  44 NW8       30.16R
EUREKA           N/A     57  37  47 MISG        N/A
HAMILTON         N/A     57  43  58 CALM      30.08R
LIBBY            N/A     54  36  50 SE3       30.06R
PLAINS           N/A     54  40  59 CALM      30.05
$$

MTZ008-052>055-251500-
SOUTHWEST MONTANA

CITY           SKY/WX    TMP DP  RH WIND       PRES   REMARKS
BOZEMAN        CLOUDY    61  46  57 SW8       30.13R
DILLON         PTSUNNY   60  48  64 N5        30.13R
W YELLOWSTONE  CLOUDY    48  45  87 CALM      30.24S
ENNIS          SUNNY     59  41  51 N8G14     30.21R
THREE FORKS      N/A     62  39  42 CALM      30.12R
TWIN BRIDGES     N/A     61  38  42 N8        30.10R
$$

MTZ009-010-012-014-046-048-049-054-251500-
EAST SLOPES AND CENTRAL MONTANA

CITY           SKY/WX    TMP DP  RH WIND       PRES   REMARKS
CUT BANK       SUNNY     53  42  66 NW5       30.17S
GREAT FALLS    MOSUNNY   56  39  53 NW6       30.18S
HELENA         PTSUNNY   60  40  47 W9        30.16R
CHOTEAU          N/A     55  41  58 S3        30.20S
$$

MTZ011-013-016-021-045-047-050-051-251500-
NORTH CENTRAL MONTANA

CITY           SKY/WX    TMP DP  RH WIND       PRES   REMARKS
HAVRE          SUNNY     58  42  55 W5        30.14R
LEWISTOWN      SUNNY     58  37  45 CALM      30.17R
N BAR RANCH      N/A     61  37  41 W8        30.19S
CHINOOK          N/A     59  43  55 W9        30.12S
$$

MTZ017>020-022>027-061-062-251500-
NORTHEAST MONTANA

CITY           SKY/WX    TMP DP  RH WIND       PRES   REMARKS
GLASGOW        SUNNY     62  46  55 NW8       30.06R
JORDAN           N/A     66  40  38 N10       30.07R
SIDNEY         SUNNY     67  43  41 N10       30.02R
WOLF POINT     CLOUDY    67  47  48 NW6       30.03R
MALTA          SUNNY     63  41  45 W9        30.09S
PLENTYWOOD       N/A     63  46  55 W20       30.00R
POPLAR           N/A     63  46  55 N8        30.03R
SCOBEY           N/A     61  43  51 W10       30.03S
$$

MTZ028>42-056>058-251500-
SOUTHCENTRAL AND SOUTHEAST MONTANA

CITY           SKY/WX    TMP DP  RH WIND       PRES   REMARKS
BAKER          MOSUNNY   70  43  37 NE20G28   30.02R
BILLINGS       CLOUDY    65  36  34 N14       30.14R
LIVINGSTON     CLOUDY    63  40  42 E16       30.16R
MILES CITY     MOSUNNY   71  36  27 NE22G29   30.04R
BIG TIMBER     SUNNY     61  41  48 NE7       30.21R
EKALAKA          N/A     68  48  48 N15       30.00R
FORSYTH          N/A     68  39  34 NE7       30.06R
LAUREL           N/A     64  34  32 N7        30.13S
ROUNDUP          N/A     62  35  36 N12       30.04R
$$

REGIONAL REPORTS...DAKOTAS

CITY           SKY/WX    TMP DP  RH WIND       PRES   REMARKS
WILLISTON      CLOUDY    69  44  40 N13       30.00R
MINOT          CLOUDY    68  46  45 W9        29.94R
DICKINSON      MOSUNNY   71  51  49 N13       30.00R
BEACH          DRIZZLE   68  41  37 NE10      30.07R
CROSBY           N/A     63  46  55 W18       29.99R
TIOGA            N/A     64  45  48 NW12      29.99S
WATFORD CITY     N/A     66  45  45 NW5       30.00R
BISMARCK       CLOUDY    71  67  87 N8        29.93F
GRAND FORKS    CLOUDY    70  67  90 S9        29.85F
BUFFALO SD       N/A     72  59  63 N20       29.89R
RAPID CITY     SUNNY     77  60  55 N7        29.96R
$$

REGIONAL REPORTS...WYOMING/IDAHO/WASHINGTON

CITY           SKY/WX    TMP DP  RH WIND       PRES   REMARKS
GILLETTE       SUNNY     75  51  43 NW6       30.03R
SHERIDAN       MOSUNNY   70  47  43 W20G29    30.05R
BUFFALO WY     SUNNY     75  47  36 NW5       30.11R
CODY           MOSUNNY   65  47  52 NE10      30.16R
YELLOWSTONE LA   N/A     49  47  93 CALM      30.33R
IDAHO FALLS    CLOUDY    61  56  83 CALM      30.10R
BOISE          CLOUDY    73  48  41 E3        29.96R
SPOKANE        MOSUNNY   63  42  46 E5        30.02R
$$

REGIONAL REPORTS...ALBERTA

CITY           SKY/WX    TMP DP  RH WIND       PRES   REMARKS
EDMONTON       MOSUNNY   55  52  88 SW5       30.03S
CALGARY        MOSUNNY   54  43  66 SW6       30.13R
LETHBRIDGE     SUNNY     54  43  66 SW10      30.14S
MEDICINE HAT   SUNNY     57  48  72 SW7       30.11R
WATERTON GATE    N/A     48  43  81 W2          N/A
MILK RIVER       N/A     52  43  71 NW9         N/A
$$

REGIONAL REPORTS...SASKATCHEWAN

CITY           SKY/WX    TMP DP  RH WIND       PRES   REMARKS
SWIFT CURRENT  SUNNY     57  48  72 W16G23    30.04R
REGINA         PTSUNNY   59  50  72 W17G25    29.94R
SASKATOON      PTSUNNY   61  55  82 W23G31    29.89R
CYPRESS HILLS    N/A     52  41  66 NW10G18     N/A
VAL MARIE        N/A     59  43  55 NW12G17     N/A
ROCKGLEN         N/A     57  46  67 W12G18      N/A
$$




USA.gov is the U.S. government's official web portal to all federal, state and local government web resources and services.